Reflectivity
-20 -20 -17 -12 -20 -10 -6 -20 -6 -14 -20 -20 -20 -20 -20 -20 -20 -20 -20 -20 -20 -20 -20 -20 -20 -20 -20 -20 -20 -20 2 5 -20 -11 -20 -20 -20 -20 -20 -20 -20 -20 -20 -20 -20
-8 -11 13 11 13 12 5 -20 -19 -16 -20 -20 -20 -20 -20 -20 -20 -20 -20 -20 -20 -20 -20 -20 -20 -20 -20 -20 -20 -20 -20 -8 20 -20 -16 -20 -20 -20 -20 -20 -20 -20 -20 -20 -20
14 13 12 12 13 10 9 7 5 4 -20 -20 -20 -20 -20 -20 -20 -20 -20 -20 -20 -20 -20 -20 -20 -20 -20 -20 -20 -20 14 22 -16 -20 -20 -20 -20 -20 -10 -20 -20 -20 -20 -20 -20
13 14 15 12 14 12 9 6 9 -20 -20 -20 -20 -20 -20 -20 -20 -20 -20 -20 -20 -20 -20 -20 -20 -20 -20 -20 -20 -20 13 15 26 -14 -1 -20 -20 -20 0 -20 -20 -20 -20 -20 -20
17 15 13 -11 -6 7 3 -11 -15 -20 -20 -20 -20 -20 -20 -20 -20 -20 -20 -20 -20 -20 -20 -20 -20 -20 -20 -20 -20 -13 16 26 11 7 2 -20 -20 19 -20 -16 -20 -20 -20 -20 -20
14 17 12 -1 -20 6 8 9 -20 -20 -20 -20 -20 -20 -20 -20 -20 -20 -20 -20 -20 -20 -20 -20 -20 -20 -20 -20 -20 -20 8 6 28 31 28 4 -20 -20 -20 -20 -20 -20 -20 -20 -20
14 14 14 12 -11 -20 7 10 1 -20 -20 -20 -20 -20 -20 -20 -20 -20 -20 -20 -20 -20 -20 -20 -20 -20 -20 -15 -20 -11 -17 -19 -20 -1 27 14 -5 -20 -20 -20 -20 -20 -20 -20 -20
11 11 13 12 -4 -20 -20 -14 -5 -20 -20 -20 -20 -20 -20 -20 -20 -20 -20 -20 -20 -20 -20 -20 -20 -20 -20 -20 -20 1 -19 17 -11 -17 -20 21 26 -14 -20 -20 -20 -20 -20 -20 -20
9 12 12 13 13 8 -20 -17 -20 -20 -20 -20 -20 -20 -20 -20 -20 -20 -20 -20 -20 -20 -20 -20 -20 -20 -20 -20 -20 -20 -20 -20 24 -19 -20 -20 38 39 -16 -20 -20 -20 -20 -20 -20
-20 -18 1 9 12 8 -20 -20 -20 -20 -20 -20 -20 -20 -20 -20 -20 -20 -20 -20 -20 -20 -20 -20 -20 -20 -20 -20 -20 -20 -20 -20 -20 -20 -20 -20 -1 -20 18 12 -20 -20 -20 -20 -20
-20 -20 -20 -20 6 8 -14 -20 -20 -20 -20 -20 -20 -20 -20 -20 -20 -20 -20 -20 -20 -20 -20 -20 -20 -20 -20 -20 -20 -20 -20 -20 -20 -20 -20 -20 -20 -20 -20 -15 -20 -20 -20 -20 -20
-20 -20 -20 -20 -20 -20 -20 -20 -20 -20 -20 -20 -20 -20 -20 -20 -20 -20 -20 -20 -20 -20 -20 -20 -20 -20 -20 -20 -20 -20 -20 -20 -20 -20 -20 -20 -20 -20 -20 -6 15 -20 -20 -20 -20
-20 -20 -20 -20 -20 -20 -20 -20 -20 -20 -20 -20 -20 -20 -20 -20 -20 -20 -20 -20 -20 -20 -20 -20 -20 -20 -20 -20 -20 -20 -20 -20 -20 -20 -20 -20 -20 -20 -20 -20 4 -20 -20 -20 -20
-20 -20 -20 -3 -20 -20 -20 -20 -20 -20 -20 -20 -20 -20 -20 -20 -20 -20 -20 -20 -20 -20 -20 -20 -20 -20 -20 -20 -20 -20 -20 -20 -20 -20 -20 -20 -20 -20 -20 -20 -20 -20 -19 -20 -20
-20 -20 -20 12 -20 -20 -20 -20 -20 -20 -20 -20 -20 -20 -20 -20 -20 -20 -20 -20 -20 -20 -20 -20 -20 -20 -20 -20 -20 -20 -20 -20 -20 -20 -20 -20 -20 -20 -20 -20 -20 -20 -20 -12 -17
-20 -20 -11 -3 -20 -20 -20 -20 -20 -20 -20 -20 -20 -20 -20 -20 -20 -20 -20 -20 -20 -20 -20 -20 -20 -20 -20 -20 -20 -20 -20 -20 -20 -20 -20 -20 -20 -20 -20 -20 -20 -20 -20 -20 -20
-20 -20 -7 -20 -20 -20 -20 -20 -20 -20 -20 -20 -20 -20 -20 -20 -20 -20 -20 -20 -20 -20 -20 -20 -20 -20 -20 -20 -20 -20 -20 -20 -20 -20 -20 -20 -20 -20 -20 -20 -20 -20 -20 -20 -20
-20 -20 -20 -20 -20 -20 -20 -20 -20 -20 -20 -20 -20 -20 -20 -20 -20 -20 -20 -20 -20 -20 -20 -20 -20 -20 -20 -20 -20 -20 -20 -20 -20 -20 -20 -20 -20 -20 -20 -20 -20 -20 -20 -20 -20
-20 -20 -20 -20 -20 -20 -20 -20 -20 -20 -20 -20 -20 -20 -20 -20 -20 -20 -20 -20 -20 -20 -20 -20 -20 -20 -20 -20 -20 -20 -20 -20 -20 -20 -20 -20 -20 -20 -20 -20 -20 -20 -20 -20 -20
-20 -20 -20 -20 -20 -20 -20 -20 -20 -20 -20 -20 -20 -20 -20 -20 -20 -20 -20 -20 -20 -20 -20 -20 -20 -20 -20 -20 -20 -20 -20 -20 -20 -20 -20 -20 -20 -20 -20 -20 -20 -20 -20 -20 -20
-20 -20 -20 -20 -20 -20 -20 -20 -20 -20 -20 -20 -20 -20 -20 -20 -20 -20 -20 -20 -20 -20 -20 -20 -20 -20 -20 -20 -20 -20 -20 -20 -20 -20 -20 -20 -20 -20 -20 -20 -20 -20 -20 -20 -20
-20 -20 -20 -20 -20 -20 -20 -20 -20 -20 -20 -20 -20 -20 -20 -20 -20 -20 -20 -20 -20 -20 -20 -20 -20 -20 -20 -20 -20 -20 -20 -20 -20 -20 -20 -20 -20 -20 -20 -20 -20 -20 -20 -20 -20
-20 -20 -20 -20 -20 -20 -20 -20 -20 -20 -20 -20 -20 -20 -20 -20 -20 -20 -20 -20 -20 -20 -20 -20 -20 -20 -20 -20 -20 -20 -20 -20 -20 -20 -20 -20 -20 -20 -20 -20 -20 -20 -20 -20 -3
-20 -20 -20 -20 -20 -20 -20 -20 -20 -20 -20 -20 -20 -20 -20 -20 -20 -20 -20 -20 -20 -20 -20 -20 -20 -20 -20 -20 -20 -20 -20 -20 -20 -20 -20 -20 -20 -20 -20 -20 -20 -20 -20 -20 -20
-20 -20 -20 -20 -20 -20 -20 -20 -20 -20 -20 -20 -20 -18 -10 -20 -20 -20 -20 -20 -20 -20 -20 -20 -20 -20 -20 -20 -20 -20 -20 -20 -20 -20 -20 -20 -20 -20 -20 -20 -20 -20 -20 -20 -20
-20 -20 -20 -20 -20 -20 -20 -20 -20 -20 -20 -20 -20 -20 -20 4 -20 -20 -20 -20 -20 -20 -20 -20 -20 -20 -20 -20 -20 -20 -20 -20 -20 -20 -20 -20 -20 -20 -20 -20 -20 -20 -20 -20 -20
-20 -20 -20 -20 -20 -20 -20 -20 -20 -20 -20 -20 -20 -20 -20 -11 2 -3 -20 -20 -20 -20 -20 -20 -20 -20 -20 -20 -20 -20 -20 -20 -20 -20 -20 -20 -20 -20 -20 -20 -20 -20 -20 -20 -20
Wind_Speed
14 13 12 12 11 11 11 11 11 10 10 10 11 11 11 11 12 2 5 5 5 8 5 5 3 2 4 4 3 1 4 3 3 4 3 6 4 3 3 8 1 2 5 8 12
15 14 14 13 12 11 11 11 11 11 10 11 10 10 10 11 2 4 8 7 4 9 5 6 4 2 4 2 2 4 3 4 2 3 1 6 4 6 4 3 4 9 14 15 12
16 16 14 14 12 11 11 11 11 11 11 11 11 10 9 6 2 4 6 9 9 7 3 3 5 3 3 2 3 2 3 4 3 4 3 5 3 3 9 3 5 11 13 13 12
16 16 15 14 13 12 11 10 11 11 11 11 10 9 9 1 3 2 6 12 9 6 4 5 4 3 3 2 2 4 7 4 1 2 4 4 7 5 11 3 8 11 15 12 12
16 17 15 14 13 12 11 11 11 12 11 10 9 8 2 1 6 4 12 11 6 5 6 5 4 4 3 3 4 3 6 7 5 1 2 5 5 5 7 7 12 11 12 12 10
18 18 16 14 13 13 12 12 12 12 10 8 7 6 1 0 2 8 10 7 6 4 4 3 5 5 6 3 2 4 6 10 7 3 6 4 4 7 7 9 12 13 12 9 12
19 19 17 15 14 13 13 13 12 11 9 6 4 2 1 5 2 6 9 6 5 5 5 4 2 4 4 4 2 6 7 4 6 3 2 1 5 5 4 11 13 12 11 10 9
19 20 18 17 15 14 13 14 12 9 7 6 3 1 5 1 5 5 3 3 4 4 1 3 2 5 4 3 4 1 3 4 5 6 4 7 2 8 6 13 11 11 10 11 8
20 21 19 18 16 15 15 15 11 6 4 4 0 1 6 1 2 5 6 3 5 3 4 3 4 4 3 4 4 3 2 2 5 10 3 5 6 11 3 8 8 9 10 10 9
20 21 20 19 16 15 16 2 8 7 1 3 3 2 3 2 3 4 4 1 1 1 3 5 5 4 3 4 4 2 2 1 2 7 5 3 4 13 8 6 9 10 10 9 8
21 19 21 20 17 13 4 2 4 3 2 6 4 3 4 3 2 2 3 4 3 7 3 4 5 8 11 5 1 0 2 3 1 4 5 6 5 13 8 6 6 7 8 9 10
22 21 20 19 20 7 2 5 5 2 8 5 4 6 4 2 2 2 4 3 2 2 3 6 6 5 6 7 6 3 1 3 1 2 2 4 5 6 6 7 9 7 8 11 6
22 21 21 21 15 2 0 4 5 4 2 7 5 4 5 8 4 7 7 3 3 3 4 6 5 7 6 5 5 4 6 5 3 4 2 4 3 5 5 5 8 7 5 6 12
22 20 19 27 3 3 3 3 3 5 6 6 3 5 4 4 2 4 6 5 1 8 5 5 5 3 4 6 7 3 7 7 8 4 2 2 3 4 3 6 5 8 6 9 13
23 20 14 8 4 2 2 3 3 4 2 2 3 2 1 8 2 3 4 3 4 4 5 7 3 2 2 4 8 4 7 7 4 5 2 3 3 5 2 5 8 10 9 9 9
25 20 14 2 1 8 6 4 4 8 5 3 4 3 5 1 1 3 3 2 2 3 1 6 2 3 4 5 3 8 9 9 6 3 3 1 4 6 2 3 3 4 9 13 10
28 23 6 1 4 2 4 5 6 4 4 3 3 2 3 4 3 5 5 2 4 3 2 5 1 4 1 8 3 4 7 5 5 4 6 3 2 9 3 4 4 6 7 9 8
29 19 6 4 4 5 4 7 3 4 5 3 2 1 5 6 4 4 5 3 4 4 3 2 6 6 4 3 8 2 6 8 6 5 4 3 5 6 2 3 4 5 5 5 6
24 2 1 4 6 2 7 4 8 5 2 5 5 3 3 3 4 4 6 6 7 9 6 5 3 4 3 3 4 4 3 4 9 3 2 3 6 4 4 3 3 2 4 3 4
5 4 4 5 5 5 6 5 3 3 3 4 5 4 1 3 6 6 6 4 6 10 3 5 3 0 3 1 8 4 5 4 4 3 3 5 5 6 5 3 3 4 4 5 6
3 5 3 3 3 6 5 6 5 6 1 1 2 2 4 3 6 6 7 3 4 4 6 4 4 4 2 5 3 2 3 7 6 4 5 2 7 5 7 6 5 4 5 7 6
4 3 3 2 4 1 3 5 4 5 3 4 3 5 4 2 3 4 9 5 6 8 8 3 6 2 1 2 2 2 3 5 6 3 2 4 8 3 6 5 5 5 6 7 8
3 4 4 3 2 3 5 4 3 2 3 3 3 5 5 3 2 4 4 2 7 7 10 8 3 4 7 8 4 1 2 5 6 4 5 5 7 1 4 4 5 6 5 5 6
3 5 5 6 1 3 5 4 4 7 3 3 4 1 2 2 5 6 4 2 3 4 10 10 4 8 9 7 4 3 4 4 5 4 5 7 6 7 7 6 4 1 2 0 4
3 1 2 4 3 4 1 3 3 5 4 4 3 4 4 1 2 5 3 2 5 6 5 6 4 4 4 4 4 4 4 7 7 5 6 4 7 9 6 7 7 5 3 2 2
2 3 4 3 3 2 3 1 2 4 2 5 1 8 6 2 6 3 1 3 6 2 4 3 2 2 5 3 5 4 6 8 4 4 4 3 7 6 2 3 6 7 6 4 3
3 3 1 3 4 2 3 0 2 5 7 6 7 6 6 4 7 10 8 4 6 10 5 5 8 4 4 2 4 4 7 6 6 5 8 7 10 2 4 3 2 6 5 5 5
Wind_Direction
354 353 348 342 336 332 327 324 320 317 317 318 319 320 322 326 315 156 245 204 187 147 144 133 82 84 60 60 11 88 63 85 62 62 63 57 117 166 64 132 121 57 112 135 125
353 351 346 340 333 328 323 317 313 312 313 314 313 319 323 331 311 242 242 157 144 143 111 144 136 119 54 58 36 59 82 128 48 29 20 332 311 152 104 159 52 74 89 111 130
349 347 343 337 331 325 319 312 309 309 311 309 314 317 320 328 291 245 163 165 170 155 135 156 133 110 64 4 47 75 68 96 58 47 5 325 254 165 132 234 198 149 137 139 144
350 345 340 336 330 325 320 314 308 307 306 309 313 315 315 274 127 90 147 145 155 151 123 126 133 105 91 47 49 79 98 130 86 125 8 356 309 167 161 230 124 153 148 144 156
350 348 344 336 330 324 317 310 305 301 301 306 309 314 326 322 255 98 117 128 121 139 163 161 143 141 136 138 131 86 134 133 124 239 2 337 17 327 187 129 112 137 150 152 166
351 348 342 335 328 323 318 311 305 300 299 301 300 309 307 136 73 128 116 126 147 150 173 194 216 171 107 145 82 124 143 139 161 99 13 21 1 358 236 125 136 152 160 175 176
348 349 345 339 332 326 319 312 307 301 295 291 283 277 320 227 57 131 134 165 183 170 157 226 197 77 128 134 99 134 123 127 150 183 151 306 306 216 209 146 158 167 172 180 192
347 346 344 338 332 325 314 303 297 292 286 274 242 259 247 14 117 126 168 171 184 213 216 162 107 101 83 140 47 96 103 147 152 141 265 142 320 351 42 153 175 174 190 188 204
345 343 341 339 336 326 311 304 275 237 231 158 183 29 282 57 189 200 162 179 160 202 218 186 119 102 77 86 17 81 143 218 131 182 125 196 114 262 272 165 181 191 197 202 200
343 341 340 338 335 329 324 280 130 126 221 209 252 14 283 222 210 170 192 182 84 3 54 65 58 85 46 92 212 207 129 256 165 193 217 244 211 205 200 214 191 198 209 201 198
335 335 337 336 334 326 335 75 16 359 165 208 220 250 279 287 127 199 144 107 96 57 99 13 81 199 198 189 191 293 133 129 205 152 167 193 210 192 223 225 205 214 197 209 207
335 333 333 332 331 298 197 98 153 171 313 238 239 274 273 284 142 242 112 113 104 142 107 27 234 204 183 202 226 231 163 183 357 123 130 171 214 190 181 230 220 214 201 198 182
333 331 332 332 333 142 161 217 114 98 137 297 202 191 196 141 212 202 131 145 115 128 166 161 238 105 162 200 220 186 192 164 151 120 57 104 306 187 212 209 216 246 221 204 186
329 330 333 329 348 307 258 165 316 181 62 281 269 272 116 118 244 184 163 135 132 195 166 227 264 222 167 217 143 229 162 132 129 97 212 7 271 252 192 220 219 221 202 200 206
326 328 328 335 288 249 174 330 125 61 42 211 217 80 79 137 188 211 201 75 189 184 114 256 264 241 234 224 158 242 117 113 114 93 82 353 60 257 200 210 222 219 211 217 206
322 325 325 120 195 244 315 332 60 43 256 298 185 165 121 133 227 112 138 87 172 159 296 241 273 219 207 60 94 124 82 55 57 81 13 290 139 282 252 231 272 255 211 205 211
322 320 286 235 223 315 324 48 43 146 302 333 251 163 173 202 216 150 156 164 174 101 328 331 256 302 189 90 47 93 63 21 18 15 222 343 39 243 255 303 284 264 249 217 214
325 320 184 226 318 325 55 53 195 238 256 313 340 91 179 166 232 155 120 196 220 101 105 125 346 7 349 162 169 85 137 150 188 193 248 42 239 271 132 14 349 357 346 202 182
321 339 159 268 202 0 81 102 210 209 293 327 317 174 225 243 182 141 198 198 215 179 149 127 328 315 44 66 102 187 82 166 105 13 61 233 291 300 176 14 340 293 6 330 211
333 344 331 5 140 67 80 218 238 223 317 37 36 4 216 243 166 164 168 214 210 196 121 196 110 95 270 83 46 101 142 72 16 141 257 290 275 241 217 239 239 216 242 268 277
14 36 280 52 48 49 150 222 266 253 287 328 243 260 254 263 179 183 201 273 195 108 93 124 105 287 357 24 156 47 59 54 107 110 161 263 265 216 192 206 203 243 272 274 286
357 38 313 53 53 39 158 193 230 275 287 258 190 202 231 281 257 202 189 229 159 137 140 147 124 108 73 340 2 93 128 129 119 219 105 151 276 229 210 191 168 216 264 301 303
11 275 312 70 112 325 308 287 248 290 324 336 286 205 222 222 246 184 192 189 159 140 165 185 42 70 357 353 7 274 128 96 103 96 189 139 264 223 262 253 238 270 267 315 321
19 352 329 36 35 91 4 299 317 339 262 345 266 16 272 286 187 215 192 100 146 108 82 88 110 153 184 199 158 180 173 154 113 120 175 226 283 282 255 213 181 198 343 2 78
31 326 170 325 349 350 285 288 333 355 326 353 359 58 305 300 346 231 173 102 35 150 76 110 139 166 196 204 184 213 195 169 192 176 164 224 206 264 241 204 179 173 196 296 30
34 15 349 282 314 311 320 93 9 358 288 292 166 323 306 234 188 250 176 199 179 205 93 11 136 154 187 220 194 183 206 199 196 170 272 183 259 233 85 113 146 187 187 231 262
336 335 107 293 322 360 235 173 358 348 283 263 333 333 287 246 302 253 212 206 215 148 133 119 130 116 231 14 355 322 211 186 188 188 153 181 227 119 125 168 182 166 193 209 247